Location: Newark
(54.0500°N, 12.8333°E)
Time: 00:29:34
(UTC+00:00)

Transit 4A - Pass Details

Date: 26 January 2020
Orbit: 872 x 973 km, 66.8° (Epoch: 24 February)

Event Time Altitude Azimuth Distance (km) Brightness Sun altitude
Rises 04:30:06 0° 171° (S) 3,538 11.1 -22.6°
Reaches altitude 10° 04:33:09 10° 157° (SSE) 2,583 10.5 -22.1°
Maximum altitude 04:37:36 22° 109° (ESE) 1,849 10.3 -21.5°
Drops below altitude 10° 04:41:59 10° 60° (ENE) 2,553 11.0 -20.8°
Sets 04:44:58 0° 46° (NE) 3,486 11.5 -20.4°
